Radiation Dose at Monitoring Post of Fukushima Daini Nuclear Power Station
Date,Time,MP-1(microSv/h),MP-2(microSv/h),MP-3(microSv/h),MP-4(microSv/h),MP-5(microSv/h),MP-6(microSv/h),MP-7(microSv/h),Wind Direction,Wind Velocity(m/s),Rain
2018/09/19,00:00,0.313,0.192,0.309,0.301,0.284,0.155,0.095,north,3.9,No
2018/09/19,00:10,0.310,0.192,0.310,0.298,0.285,0.155,0.094,north,4.3,No
2018/09/19,00:20,0.312,0.190,0.309,0.300,0.283,0.155,0.095,north,4.5,No
2018/09/19,00:30,0.311,0.190,0.311,0.298,0.285,0.155,0.095,north-northwest,2.9,No
2018/09/19,00:40,0.312,0.192,0.309,0.300,0.283,0.154,0.095,north-northwest,3.6,No
2018/09/19,00:50,0.311,0.191,0.310,0.299,0.285,0.155,0.095,north-northwest,4.0,No
2018/09/19,01:00,0.313,0.191,0.309,0.301,0.283,0.154,0.094,northwest,4.4,No
2018/09/19,01:10,0.310,0.191,0.311,0.298,0.285,0.155,0.095,north-northwest,3.2,No
2018/09/19,01:20,0.313,0.192,0.310,0.299,0.282,0.154,0.095,north-northwest,1.7,No
2018/09/19,01:30,0.310,0.191,0.310,0.299,0.285,0.154,0.095,northwest,1.3,No
2018/09/19,01:40,0.311,0.191,0.310,0.300,0.283,0.154,0.094,north-northwest,1.6,No
2018/09/19,01:50,0.311,0.190,0.311,0.298,0.286,0.154,0.095,north-northwest,2.3,No
2018/09/19,02:00,0.311,0.191,0.310,0.300,0.282,0.155,0.095,north-northwest,2.5,No
2018/09/19,02:10,0.312,0.191,0.309,0.299,0.286,0.154,0.095,northwest,3.3,No
2018/09/19,02:20,0.312,0.191,0.312,0.300,0.284,0.155,0.095,north-northwest,3.6,No
2018/09/19,02:30,0.313,0.192,0.310,0.300,0.284,0.155,0.095,north-northwest,4.5,No
2018/09/19,02:40,0.312,0.191,0.311,0.300,0.283,0.155,0.095,north-northwest,7.1,No
2018/09/19,02:50,0.312,0.191,0.309,0.300,0.285,0.153,0.095,north-northwest,6.4,No
2018/09/19,03:00,0.312,0.191,0.311,0.299,0.284,0.155,0.094,north-northwest,5.4,No
2018/09/19,03:10,0.311,0.191,0.309,0.300,0.286,0.155,0.094,north-northwest,4.8,No
2018/09/19,03:20,0.311,0.191,0.310,0.298,0.284,0.154,0.095,north-northwest,3.9,No
2018/09/19,03:30,0.312,0.191,0.308,0.301,0.284,0.155,0.094,northwest,2.7,No
2018/09/19,03:40,0.310,0.192,0.311,0.298,0.283,0.155,0.094,north-northwest,3.9,No
2018/09/19,03:50,0.312,0.191,0.310,0.301,0.284,0.154,0.094,north-northwest,4.5,No
2018/09/19,04:00,0.311,0.192,0.310,0.299,0.283,0.155,0.095,north-northwest,3.6,No
2018/09/19,04:10,0.312,0.191,0.309,0.299,0.283,0.155,0.094,northwest,2.8,No
2018/09/19,04:20,0.311,0.191,0.310,0.298,0.284,0.154,0.095,northwest,1.7,No
2018/09/19,04:30,0.313,0.191,0.310,0.298,0.284,0.154,0.095,north-northwest,1.8,No
2018/09/19,04:40,0.311,0.191,0.310,0.298,0.284,0.155,0.095,north-northwest,3.2,No
2018/09/19,04:50,0.312,0.192,0.310,0.299,0.284,0.154,0.095,northwest,2.1,No
2018/09/19,05:00,0.311,0.191,0.309,0.300,0.284,0.154,0.095,northwest,2.7,No
2018/09/19,05:10,0.312,0.192,0.311,0.298,0.283,0.154,0.095,northwest,3.0,No
2018/09/19,05:20,0.310,0.191,0.309,0.300,0.285,0.154,0.094,northwest,4.1,No
2018/09/19,05:30,0.312,0.191,0.310,0.298,0.282,0.154,0.095,northwest,4.6,No
2018/09/19,05:40,0.312,0.191,0.310,0.301,0.284,0.154,0.095,northwest,5.7,No
2018/09/19,05:50,0.310,0.191,0.312,0.298,0.283,0.154,0.094,north-northwest,5.6,No
2018/09/19,06:00,0.312,0.192,0.309,0.298,0.285,0.154,0.095,northwest,5.9,No
2018/09/19,06:10,0.310,0.192,0.309,0.299,0.283,0.155,0.094,northwest,5.9,No
2018/09/19,06:20,0.312,0.192,0.310,0.298,0.285,0.153,0.094,northwest,6.3,No
2018/09/19,06:30,0.310,0.190,0.308,0.301,0.283,0.154,0.095,northwest,5.6,No
2018/09/19,06:40,0.312,0.192,0.312,0.298,0.285,0.154,0.096,northwest,5.2,No
2018/09/19,06:50,0.309,0.191,0.309,0.301,0.281,0.154,0.095,northwest,4.8,No
2018/09/19,07:00,0.312,0.190,0.311,0.298,0.285,0.154,0.094,north-northwest,6.2,No
2018/09/19,07:10,0.311,0.191,0.308,0.300,0.281,0.155,0.095,north-northwest,5.6,No
2018/09/19,07:20,0.311,0.190,0.310,0.300,0.284,0.154,0.094,north-northwest,6.4,No
2018/09/19,07:30,0.311,0.190,0.309,0.300,0.282,0.155,0.095,north-northwest,5.8,No
2018/09/19,07:40,0.312,0.191,0.310,0.299,0.284,0.153,0.095,north-northwest,4.8,No
2018/09/19,07:50,0.310,0.191,0.307,0.298,0.285,0.154,0.095,north-northwest,6.5,No
2018/09/19,08:00,0.311,0.192,0.311,0.300,0.282,0.154,0.093,north-northwest,4.9,No
2018/09/19,08:10,0.311,0.190,0.309,0.295,0.283,0.155,0.093,north-northwest,3.9,No
2018/09/19,08:20,0.308,0.191,0.309,0.295,0.283,0.154,0.094,north-northwest,3.0,No
2018/09/19,08:30,0.313,0.191,0.309,0.296,0.283,0.154,0.094,north,4.6,No
2018/09/19,08:40,0.311,0.190,0.309,0.299,0.285,0.154,0.093,north,4.7,No
2018/09/19,08:50,0.308,0.189,0.311,0.299,0.282,0.155,0.094,north,4.9,No
2018/09/19,09:00,0.310,0.189,0.308,0.297,0.280,0.156,0.094,north,5.0,No
2018/09/19,09:10,0.312,0.192,0.308,0.296,0.283,0.155,0.094,north,4.9,No
2018/09/19,09:20,0.311,0.191,0.310,0.297,0.283,0.154,0.094,north,5.0,No
2018/09/19,09:30,0.307,0.191,0.309,0.297,0.282,0.154,0.094,north-northeast,4.6,No
2018/09/19,09:40,0.309,0.190,0.312,0.297,0.282,0.153,0.095,north-northeast,4.6,No
2018/09/19,09:50,0.314,0.190,0.308,0.297,0.281,0.154,0.095,northeast,4.3,No
2018/09/19,10:00,0.313,0.189,0.309,0.298,0.281,0.155,0.095,northeast,4.2,No
2018/09/19,10:10,0.312,0.189,0.310,0.299,0.280,0.155,0.095,northeast,4.8,No
2018/09/19,10:20,0.309,0.190,0.307,0.298,0.280,0.155,0.094,northeast,4.7,No
2018/09/19,10:30,0.308,0.189,0.312,0.299,0.283,0.155,0.094,northeast,4.5,No
2018/09/19,10:40,0.309,0.189,0.311,0.300,0.283,0.155,0.094,northeast,4.0,No
2018/09/19,10:50,0.308,0.190,0.309,0.299,0.282,0.155,0.094,northeast,4.7,No
2018/09/19,11:00,0.309,0.190,0.308,0.300,0.286,0.154,0.095,northeast,4.0,No
2018/09/19,11:10,0.309,0.191,0.307,0.300,0.287,0.154,0.094,northeast,3.9,No
2018/09/19,11:20,0.310,0.190,0.307,0.299,0.285,0.155,0.094,northeast,4.3,No
2018/09/19,11:30,0.309,0.191,0.306,0.300,0.283,0.155,0.095,northeast,4.1,No
2018/09/19,11:40,0.308,0.191,0.309,0.300,0.282,0.156,0.096,east-northeast,3.4,No
2018/09/19,11:50,0.310,0.190,0.307,0.300,0.282,0.155,0.095,east-northeast,4.0,No
2018/09/19,12:00,0.309,0.190,0.308,0.300,0.282,0.155,0.094,east-northeast,3.6,No
2018/09/19,12:10,0.309,0.190,0.308,0.300,0.282,0.155,0.095,east-northeast,2.9,No
2018/09/19,12:20,0.309,0.190,0.308,0.300,0.281,0.156,0.094,east,3.7,No
2018/09/19,12:30,0.308,0.191,0.308,0.300,0.284,0.155,0.094,east-northeast,2.8,No
2018/09/19,12:40,0.309,0.190,0.308,0.300,0.283,0.156,0.095,east-northeast,3.3,No
2018/09/19,12:50,0.310,0.190,0.308,0.300,0.283,0.156,0.095,east,2.2,No
2018/09/19,13:00,0.309,0.191,0.310,0.300,0.284,0.155,0.094,east-northeast,2.8,No
2018/09/19,13:10,0.310,0.191,0.309,0.300,0.282,0.155,0.095,east-southeast,1.5,No
2018/09/19,13:20,0.311,0.191,0.309,0.301,0.284,0.158,0.095,east-northeast,2.2,No
2018/09/19,13:30,0.315,0.191,0.310,0.299,0.284,0.155,0.094,east,2.5,No
2018/09/19,13:40,0.314,0.191,0.309,0.300,0.285,0.155,0.094,east-southeast,1.8,No
2018/09/19,13:50,0.313,0.191,0.308,0.300,0.283,0.156,0.095,east-southeast,1.5,No
2018/09/19,14:00,0.312,0.190,0.309,0.300,0.284,0.155,0.094,southeast,1.6,No
2018/09/19,14:10,0.311,0.191,0.309,0.299,0.283,0.155,0.094,east-southeast,1.6,No
2018/09/19,14:20,0.309,0.190,0.308,0.296,0.283,0.156,0.094,southeast,1.4,No
2018/09/19,14:30,0.310,0.192,0.309,0.298,0.282,0.155,0.094,southeast,1.0,No
2018/09/19,14:40,0.310,0.192,0.310,0.299,0.283,0.155,0.095,east-southeast,1.5,No
2018/09/19,14:50,0.311,0.191,0.308,0.303,0.283,0.156,0.096,east-southeast,1.1,No
2018/09/19,15:00,0.310,0.192,0.309,0.299,0.284,0.156,0.095,southeast,1.2,No
2018/09/19,15:10,0.310,0.193,0.313,0.299,0.280,0.155,0.097,south-southeast,1.2,No
2018/09/19,15:20,0.310,0.193,0.311,0.304,0.282,0.155,0.096,south-southeast,0.9,No
2018/09/19,15:30,0.310,0.192,0.309,0.303,0.283,0.155,0.095,south-southeast,1.9,No
2018/09/19,15:40,0.312,0.194,0.313,0.300,0.287,0.155,0.096,south-southeast,1.7,No
2018/09/19,15:50,0.315,0.192,0.312,0.302,0.289,0.157,0.095,south,1.4,No
2018/09/19,16:00,0.315,0.191,0.311,0.303,0.286,0.156,0.095,south-southeast,1.6,No
2018/09/19,16:10,0.312,0.195,0.314,0.300,0.283,0.155,0.096,south-southeast,1.6,No
2018/09/19,16:20,0.317,0.193,0.312,0.302,0.283,0.155,0.095,south-southeast,1.6,No
2018/09/19,16:30,0.313,0.193,0.309,0.302,0.283,0.155,0.095,south-southeast,2.0,No
2018/09/19,16:40,0.315,0.192,0.314,0.299,0.282,0.156,0.096,south,1.4,No
2018/09/19,16:50,0.316,0.192,0.311,0.304,0.283,0.156,0.095,south,1.3,No
2018/09/19,17:00,0.312,0.193,0.312,0.301,0.285,0.155,0.095,-,CALM,No
2018/09/19,17:10,0.315,0.192,0.312,0.299,0.287,0.156,0.095,south,1.2,No
2018/09/19,17:20,0.313,0.193,0.310,0.304,0.285,0.155,0.096,south,1.8,No
2018/09/19,17:30,0.314,0.192,0.314,0.300,0.286,0.157,0.096,south,1.4,No
2018/09/19,17:40,0.314,0.193,0.310,0.303,0.286,0.156,0.095,-,CALM,No
2018/09/19,17:50,0.314,0.192,0.313,0.303,0.286,0.157,0.095,-,CALM,No
2018/09/19,18:00,0.314,0.193,0.311,0.301,0.287,0.156,0.095,southwest,0.8,No
2018/09/19,18:10,0.312,0.192,0.312,0.302,0.284,0.155,0.095,west-southwest,1.4,No
2018/09/19,18:20,0.315,0.194,0.312,0.302,0.287,0.156,0.095,west-southwest,0.9,No
2018/09/19,18:30,0.312,0.192,0.312,0.303,0.285,0.156,0.095,west-southwest,1.1,No
2018/09/19,18:40,0.314,0.194,0.313,0.300,0.287,0.156,0.095,south-southwest,4.2,No
2018/09/19,18:50,0.312,0.193,0.311,0.304,0.285,0.156,0.096,south-southwest,3.3,No
2018/09/19,19:00,0.314,0.193,0.313,0.301,0.285,0.156,0.096,south-southwest,3.7,No
2018/09/19,19:10,0.313,0.193,0.312,0.304,0.286,0.157,0.096,south-southwest,3.5,No
2018/09/19,19:20,0.314,0.193,0.313,0.302,0.286,0.155,0.097,south-southwest,5.0,No
2018/09/19,19:30,0.314,0.192,0.311,0.304,0.286,0.156,0.095,south-southwest,3.9,No
2018/09/19,19:40,0.312,0.193,0.313,0.302,0.285,0.157,0.096,south-southwest,5.8,No
2018/09/19,19:50,0.313,0.194,0.311,0.303,0.287,0.155,0.095,south-southwest,3.9,No
2018/09/19,20:00,0.313,0.193,0.314,0.301,0.285,0.156,0.096,southwest,2.2,No
2018/09/19,20:10,0.314,0.194,0.311,0.304,0.285,0.156,0.096,west-southwest,1.4,No
2018/09/19,20:20,0.316,0.192,0.314,0.301,0.284,0.156,0.096,west,1.1,No
2018/09/19,20:30,0.315,0.193,0.311,0.302,0.286,0.157,0.095,west-southwest,1.0,No
2018/09/19,20:40,0.315,0.192,0.313,0.301,0.283,0.156,0.096,west-southwest,1.3,No
2018/09/19,20:50,0.313,0.192,0.311,0.302,0.287,0.157,0.095,west-southwest,1.6,No
2018/09/19,21:00,0.314,0.193,0.313,0.301,0.284,0.156,0.096,west-southwest,1.3,No
2018/09/19,21:10,0.313,0.193,0.312,0.303,0.285,0.155,0.096,west-southwest,1.7,No
2018/09/19,21:20,0.315,0.193,0.312,0.302,0.284,0.156,0.096,southwest,2.3,No
2018/09/19,21:30,0.311,0.191,0.312,0.302,0.288,0.156,0.096,southwest,2.5,No
2018/09/19,21:40,0.315,0.193,0.312,0.301,0.283,0.155,0.095,west-southwest,2.6,No
2018/09/19,21:50,0.313,0.192,0.312,0.303,0.286,0.155,0.096,west-southwest,3.3,No
2018/09/19,22:00,0.315,0.192,0.312,0.302,0.284,0.156,0.096,west-southwest,3.6,No
2018/09/19,22:10,0.313,0.192,0.312,0.303,0.286,0.155,0.096,west-southwest,3.3,No
2018/09/19,22:20,0.316,0.192,0.312,0.302,0.284,0.156,0.095,west-southwest,2.8,No
2018/09/19,22:30,0.313,0.193,0.312,0.302,0.285,0.155,0.096,west-southwest,2.8,No
2018/09/19,22:40,0.315,0.192,0.311,0.302,0.284,0.156,0.096,west-southwest,2.8,No
2018/09/19,22:50,0.312,0.193,0.313,0.302,0.284,0.155,0.095,west-southwest,3.5,No
2018/09/19,23:00,0.314,0.191,0.311,0.302,0.285,0.156,0.096,west-southwest,3.5,No
2018/09/19,23:10,0.314,0.193,0.314,0.302,0.285,0.156,0.095,west-southwest,3.8,No
2018/09/19,23:20,0.314,0.194,0.313,0.303,0.284,0.156,0.095,west,3.0,No
2018/09/19,23:30,0.314,0.191,0.312,0.300,0.284,0.156,0.096,west-southwest,2.9,No
2018/09/19,23:40,0.313,0.193,0.314,0.303,0.284,0.156,0.095,west-southwest,2.3,No
2018/09/19,23:50,0.314,0.192,0.310,0.301,0.284,0.155,0.096,west-southwest,2.8,No
